Time,TemperatureF,DewpointF,PressureIn,WindDirection,WindDirectionDegrees,WindSpeedMPH,WindSpeedGustMPH,Humidity,HourlyPrecipIn,Conditions,Clouds,dailyrainin,SolarRadiationWatts/m^2,SoftwareType,DateUTC
2013-03-07 00:01:00,39.0,36.0,-100.00,East,101,3.0,5.0,90,-99.99,,,-99.99,0.000000,,2013-03-07 08:01:00,
2013-03-07 00:11:00,40.0,38.0,-100.00,ESE,111,4.0,5.0,92,-99.99,,,-99.99,0.000000,,2013-03-07 08:11:00,
2013-03-07 00:22:00,40.0,38.0,-100.00,ESE,108,3.0,4.0,91,-99.99,,,-99.99,0.000000,,2013-03-07 08:22:00,
2013-03-07 00:32:00,40.0,38.0,-100.00,ESE,105,2.0,4.0,91,-99.99,,,-99.99,0.000000,,2013-03-07 08:32:00,
2013-03-07 00:43:00,41.0,38.0,-100.00,NE,43,3.0,4.0,90,-99.99,,,-99.99,0.000000,,2013-03-07 08:43:00,
2013-03-07 00:52:00,41.0,38.0,-100.00,North,11,4.0,5.0,89,-99.99,,,-99.99,0.000000,,2013-03-07 08:52:00,
2013-03-07 01:02:00,42.0,39.0,-100.00,North,359,3.0,6.0,88,-99.99,,,-99.99,0.000000,,2013-03-07 09:02:00,
2013-03-07 01:11:00,41.0,38.0,-100.00,North,1,3.0,4.0,89,-99.99,,,-99.99,0.000000,,2013-03-07 09:11:00,
2013-03-07 01:21:00,42.0,39.0,-100.00,NNW,346,3.0,5.0,89,-99.99,,,-99.99,0.000000,,2013-03-07 09:21:00,
2013-03-07 01:32:00,42.0,39.0,-100.00,NNE,27,3.0,6.0,88,-99.99,,,-99.99,0.000000,,2013-03-07 09:32:00,
2013-03-07 01:42:00,42.0,38.0,-100.00,NNE,13,3.0,6.0,87,-99.99,,,-99.99,0.000000,,2013-03-07 09:42:00,
2013-03-07 01:52:00,43.0,39.0,-100.00,NNW,348,2.0,4.0,85,-99.99,,,-99.99,0.000000,,2013-03-07 09:52:00,
2013-03-07 02:01:00,43.0,39.0,-100.00,NNW,338,2.0,4.0,87,-99.99,,,-99.99,0.000000,,2013-03-07 10:01:00,
2013-03-07 02:11:00,43.0,39.0,-100.00,NW,324,3.0,7.0,86,-99.99,,,-99.99,0.000000,,2013-03-07 10:11:00,
2013-03-07 02:22:00,43.0,40.0,-100.00,North,349,2.0,5.0,88,-99.99,,,-99.99,0.000000,,2013-03-07 10:22:00,
2013-03-07 02:32:00,43.0,40.0,-100.00,North,7,2.0,4.0,88,-99.99,,,-99.99,0.000000,,2013-03-07 10:32:00,
2013-03-07 02:42:00,43.0,40.0,-100.00,North,7,2.0,3.0,89,-99.99,,,-99.99,0.000000,,2013-03-07 10:42:00,
2013-03-07 02:52:00,43.0,40.0,-100.00,North,3,2.0,3.0,89,-99.99,,,-99.99,0.000000,,2013-03-07 10:52:00,
2013-03-07 03:01:00,43.0,40.0,-100.00,SW,214,1.0,2.0,90,-99.99,,,-99.99,0.000000,,2013-03-07 11:01:00,
2013-03-07 03:11:00,43.0,41.0,-100.00,East,100,1.0,3.0,91,-99.99,,,-99.99,0.000000,,2013-03-07 11:11:00,
2013-03-07 03:22:00,43.0,41.0,-100.00,WSW,242,2.0,3.0,91,-99.99,,,-99.99,0.000000,,2013-03-07 11:22:00,
2013-03-07 03:32:00,42.0,39.0,-100.00,WSW,248,2.0,3.0,89,-99.99,,,-99.99,0.000000,,2013-03-07 11:32:00,
2013-03-07 03:42:00,42.0,38.0,-100.00,WSW,246,1.0,2.0,87,-99.99,,,-99.99,0.000000,,2013-03-07 11:42:00,
2013-03-07 03:52:00,42.0,38.0,-100.00,East,95,0.0,1.0,87,-99.99,,,-99.99,0.000000,,2013-03-07 11:52:00,
2013-03-07 04:01:00,42.0,38.0,-100.00,North,7,1.0,2.0,86,-99.99,,,-99.99,0.000000,,2013-03-07 12:01:00,
2013-03-07 04:11:00,42.0,38.0,-100.00,NE,37,1.0,4.0,86,-99.99,,,-99.99,0.000000,,2013-03-07 12:11:00,
2013-03-07 04:21:00,42.0,38.0,-100.00,NNE,20,2.0,4.0,86,-99.99,,,-99.99,0.000000,,2013-03-07 12:21:00,
2013-03-07 04:32:00,42.0,38.0,-100.00,North,354,1.0,2.0,87,-99.99,,,-99.99,0.000000,,2013-03-07 12:32:00,
2013-03-07 04:42:00,42.0,38.0,-100.00,NW,307,2.0,4.0,87,-99.99,,,-99.99,0.000000,,2013-03-07 12:42:00,
2013-03-07 04:52:00,42.0,38.0,-100.00,North,3,1.0,3.0,87,-99.99,,,-99.99,0.000000,,2013-03-07 12:52:00,
2013-03-07 05:02:00,42.0,39.0,-100.00,NW,317,1.0,3.0,89,-99.99,,,-99.99,0.000000,,2013-03-07 13:02:00,
2013-03-07 05:12:00,41.0,39.0,-100.00,WSW,245,4.0,9.0,91,-99.99,,,-99.99,0.000000,,2013-03-07 13:12:00,
2013-03-07 05:21:00,40.0,39.0,-100.00,SSW,202,4.0,6.0,95,-99.99,,,-99.99,0.000000,,2013-03-07 13:21:00,
2013-03-07 05:32:00,40.0,39.0,-100.00,ESE,110,5.0,8.0,97,-99.99,,,-99.99,0.000000,,2013-03-07 13:32:00,
2013-03-07 05:42:00,40.0,39.0,-100.00,ESE,110,5.0,8.0,97,-99.99,,,-99.99,0.000000,,2013-03-07 13:42:00,
2013-03-07 05:52:00,41.0,39.0,-100.00,South,187,2.0,5.0,93,-99.99,,,-99.99,0.000000,,2013-03-07 13:52:00,
2013-03-07 06:01:00,40.0,38.0,-100.00,SSE,159,3.0,4.0,93,-99.99,,,-99.99,0.000000,,2013-03-07 14:01:00,
2013-03-07 06:11:00,41.0,39.0,-100.00,SE,132,2.0,5.0,94,-99.99,,,-99.99,0.000000,,2013-03-07 14:11:00,
2013-03-07 06:21:00,41.0,40.0,-100.00,SSE,154,2.0,4.0,95,-99.99,,,-99.99,0.000000,,2013-03-07 14:21:00,
2013-03-07 06:32:00,41.0,40.0,-100.00,ESE,110,3.0,4.0,96,-99.99,,,-99.99,0.000000,,2013-03-07 14:32:00,
2013-03-07 06:42:00,41.0,40.0,-100.00,SE,135,3.0,4.0,97,-99.99,,,-99.99,0.000000,,2013-03-07 14:42:00,
2013-03-07 06:52:00,42.0,41.0,-100.00,SE,135,1.0,3.0,95,-99.99,,,-99.99,0.000000,,2013-03-07 14:52:00,
2013-03-07 07:02:00,42.0,41.0,-100.00,West,263,1.0,2.0,95,-99.99,,,-99.99,0.000000,,2013-03-07 15:02:00,
2013-03-07 07:11:00,42.0,41.0,-100.00,WSW,257,2.0,4.0,95,-99.99,,,-99.99,0.000000,,2013-03-07 15:11:00,
2013-03-07 07:22:00,41.0,40.0,-100.00,SSW,206,2.0,4.0,96,-99.99,,,-99.99,0.000000,,2013-03-07 15:22:00,
2013-03-07 07:32:00,41.0,40.0,-100.00,SW,220,0.0,1.0,96,-99.99,,,-99.99,0.000000,,2013-03-07 15:32:00,
2013-03-07 07:42:00,41.0,40.0,-100.00,North,354,0.0,1.0,97,-99.99,,,-99.99,0.000000,,2013-03-07 15:42:00,
2013-03-07 07:52:00,42.0,41.0,-100.00,ENE,65,0.0,1.0,97,-99.99,,,-99.99,0.000000,,2013-03-07 15:52:00,
2013-03-07 08:01:00,42.0,41.0,-100.00,NNE,21,1.0,2.0,97,-99.99,,,-99.99,0.000000,,2013-03-07 16:01:00,
2013-03-07 08:11:00,42.0,41.0,-100.00,North,1,0.0,1.0,97,-99.99,,,-99.99,0.000000,,2013-03-07 16:11:00,
2013-03-07 08:21:00,42.0,41.0,-100.00,SW,214,2.0,5.0,97,-99.99,,,-99.99,0.000000,,2013-03-07 16:21:00,
2013-03-07 08:32:00,42.0,41.0,-100.00,SSW,207,2.0,5.0,97,-99.99,,,-99.99,0.000000,,2013-03-07 16:32:00,
2013-03-07 08:42:00,42.0,41.0,-100.00,SSW,212,2.0,4.0,97,-99.99,,,-99.99,0.000000,,2013-03-07 16:42:00,
2013-03-07 08:52:00,42.0,41.0,-100.00,South,186,2.0,5.0,98,-99.99,,,-99.99,0.000000,,2013-03-07 16:52:00,
2013-03-07 09:01:00,42.0,41.0,-100.00,SSW,199,3.0,4.0,98,-99.99,,,-99.99,0.000000,,2013-03-07 17:01:00,
2013-03-07 09:11:00,42.0,41.0,-100.00,SW,220,2.0,7.0,97,-99.99,,,-99.99,0.000000,,2013-03-07 17:11:00,
2013-03-07 09:22:00,42.0,41.0,-100.00,SW,228,2.0,5.0,97,-99.99,,,-99.99,0.000000,,2013-03-07 17:22:00,
2013-03-07 09:32:00,43.0,42.0,-100.00,SSW,203,3.0,6.0,97,-99.99,,,-99.99,0.000000,,2013-03-07 17:32:00,
2013-03-07 09:42:00,42.0,41.0,-100.00,SW,234,3.0,6.0,97,-99.99,,,-99.99,0.000000,,2013-03-07 17:42:00,
2013-03-07 09:52:00,42.0,41.0,-100.00,South,187,2.0,5.0,97,-99.99,,,-99.99,0.000000,,2013-03-07 17:52:00,
2013-03-07 10:02:00,43.0,42.0,-100.00,SSW,194,3.0,5.0,97,-99.99,,,-99.99,0.000000,,2013-03-07 18:02:00,
2013-03-07 10:11:00,43.0,42.0,-100.00,WSW,240,2.0,5.0,97,-99.99,,,-99.99,0.000000,,2013-03-07 18:11:00,
2013-03-07 10:21:00,43.0,42.0,-100.00,SSW,194,2.0,5.0,96,-99.99,,,-99.99,0.000000,,2013-03-07 18:21:00,
2013-03-07 10:31:00,44.0,43.0,-100.00,SSW,195,3.0,6.0,95,-99.99,,,-99.99,0.000000,,2013-03-07 18:31:00,
2013-03-07 10:42:00,44.0,42.0,-100.00,WSW,243,5.0,9.0,93,-99.99,,,-99.99,0.000000,,2013-03-07 18:42:00,
2013-03-07 10:52:00,43.0,42.0,-100.00,WSW,247,3.0,7.0,96,-99.99,,,-99.99,0.000000,,2013-03-07 18:52:00,
2013-03-07 11:02:00,43.0,42.0,-100.00,WSW,258,2.0,6.0,97,-99.99,,,-99.99,0.000000,,2013-03-07 19:02:00,
2013-03-07 11:11:00,44.0,43.0,-100.00,SW,217,2.0,9.0,97,-99.99,,,-99.99,0.000000,,2013-03-07 19:11:00,
2013-03-07 11:21:00,44.0,43.0,-100.00,WSW,238,6.0,11.0,97,-99.99,,,-99.99,0.000000,,2013-03-07 19:21:00,
2013-03-07 11:33:00,43.0,42.0,-100.00,WSW,244,4.0,10.0,97,-99.99,,,-99.99,0.000000,,2013-03-07 19:33:00,
2013-03-07 11:42:00,43.0,42.0,-100.00,SW,219,3.0,6.0,97,-99.99,,,-99.99,0.000000,,2013-03-07 19:42:00,
2013-03-07 11:52:00,43.0,42.0,-100.00,South,191,4.0,9.0,97,-99.99,,,-99.99,0.000000,,2013-03-07 19:52:00,
2013-03-07 12:01:00,43.0,42.0,-100.00,South,191,4.0,9.0,97,-99.99,,,-99.99,0.000000,,2013-03-07 20:01:00,
2013-03-07 12:12:00,44.0,43.0,-100.00,SSW,199,5.0,11.0,97,-99.99,,,-99.99,0.000000,,2013-03-07 20:12:00,
2013-03-07 12:21:00,44.0,43.0,-100.00,SW,217,4.0,8.0,95,-99.99,,,-99.99,0.000000,,2013-03-07 20:21:00,
2013-03-07 12:31:00,43.0,42.0,-100.00,WSW,241,5.0,12.0,96,-99.99,,,-99.99,0.000000,,2013-03-07 20:31:00,
2013-03-07 12:42:00,43.0,42.0,-100.00,SW,231,6.0,12.0,96,-99.99,,,-99.99,0.000000,,2013-03-07 20:42:00,
2013-03-07 12:52:00,44.0,42.0,-100.00,SW,214,5.0,13.0,93,-99.99,,,-99.99,0.000000,,2013-03-07 20:52:00,
2013-03-07 13:11:00,45.0,41.0,-100.00,SSW,205,5.0,11.0,85,-99.99,,,-99.99,0.000000,,2013-03-07 21:11:00,
2013-03-07 13:22:00,44.0,39.0,-100.00,SW,236,5.0,10.0,83,-99.99,,,-99.99,0.000000,,2013-03-07 21:22:00,
2013-03-07 13:32:00,45.0,39.0,-100.00,SSW,205,6.0,13.0,78,-99.99,,,-99.99,0.000000,,2013-03-07 21:32:00,
2013-03-07 13:42:00,45.0,38.0,-100.00,SSW,198,7.0,15.0,77,-99.99,,,-99.99,0.000000,,2013-03-07 21:42:00,
2013-03-07 13:52:00,45.0,38.0,-100.00,SSW,202,6.0,13.0,77,-99.99,,,-99.99,0.000000,,2013-03-07 21:52:00,
2013-03-07 14:01:00,44.0,38.0,-100.00,SW,229,7.0,13.0,78,-99.99,,,-99.99,0.000000,,2013-03-07 22:01:00,
2013-03-07 14:11:00,44.0,38.0,-100.00,SW,227,5.0,13.0,80,-99.99,,,-99.99,0.000000,,2013-03-07 22:11:00,
2013-03-07 14:22:00,44.0,38.0,-100.00,SSW,209,6.0,13.0,80,-99.99,,,-99.99,0.000000,,2013-03-07 22:22:00,
2013-03-07 14:32:00,44.0,38.0,-100.00,SSW,204,7.0,14.0,79,-99.99,,,-99.99,0.000000,,2013-03-07 22:32:00,
2013-03-07 14:42:00,44.0,37.0,-100.00,SSW,197,7.0,13.0,76,-99.99,,,-99.99,0.000000,,2013-03-07 22:42:00,
2013-03-07 14:52:00,44.0,36.0,-100.00,WSW,237,5.0,12.0,73,-99.99,,,-99.99,0.000000,,2013-03-07 22:52:00,
2013-03-07 15:01:00,44.0,36.0,-100.00,WSW,237,5.0,12.0,73,-99.99,,,-99.99,0.000000,,2013-03-07 23:01:00,
2013-03-07 15:12:00,44.0,35.0,-100.00,SW,231,7.0,17.0,71,-99.99,,,-99.99,0.000000,,2013-03-07 23:12:00,
2013-03-07 15:21:00,44.0,35.0,-100.00,WSW,239,8.0,14.0,70,-99.99,,,-99.99,0.000000,,2013-03-07 23:21:00,
2013-03-07 15:32:00,44.0,35.0,-100.00,SW,236,4.0,12.0,70,-99.99,,,-99.99,0.000000,,2013-03-07 23:32:00,
2013-03-07 15:42:00,44.0,33.0,-100.00,SW,222,6.0,12.0,66,-99.99,,,-99.99,0.000000,,2013-03-07 23:42:00,
2013-03-07 15:52:00,44.0,33.0,-100.00,WSW,240,6.0,13.0,66,-99.99,,,-99.99,0.000000,,2013-03-07 23:52:00,
2013-03-07 16:02:00,44.0,33.0,-100.00,WSW,240,6.0,13.0,66,-99.99,,,-99.99,0.000000,,2013-03-08 00:02:00,
2013-03-07 16:11:00,43.0,34.0,-100.00,WSW,247,7.0,13.0,69,-99.99,,,-99.99,0.000000,,2013-03-08 00:11:00,
2013-03-07 16:22:00,44.0,36.0,-100.00,SW,231,6.0,15.0,72,-99.99,,,-99.99,0.000000,,2013-03-08 00:22:00,
2013-03-07 16:33:00,44.0,37.0,-100.00,WSW,251,5.0,12.0,75,-99.99,,,-99.99,0.000000,,2013-03-08 00:33:00,
2013-03-07 16:42:00,43.0,37.0,-100.00,SW,235,6.0,11.0,79,-99.99,,,-99.99,0.000000,,2013-03-08 00:42:00,
2013-03-07 16:52:00,42.0,37.0,-100.00,WSW,241,8.0,15.0,82,-99.99,,,-99.99,0.000000,,2013-03-08 00:52:00,
2013-03-07 17:01:00,42.0,37.0,-100.00,WSW,250,7.0,11.0,83,-99.99,,,-99.99,0.000000,,2013-03-08 01:01:00,
2013-03-07 17:11:00,42.0,38.0,-100.00,WSW,243,6.0,11.0,86,-99.99,,,-99.99,0.000000,,2013-03-08 01:11:00,
2013-03-07 17:21:00,42.0,38.0,-100.00,SW,231,5.0,10.0,87,-99.99,,,-99.99,0.000000,,2013-03-08 01:21:00,
2013-03-07 17:32:00,42.0,38.0,-100.00,WSW,246,5.0,10.0,87,-99.99,,,-99.99,0.000000,,2013-03-08 01:32:00,
2013-03-07 17:42:00,42.0,38.0,-100.00,WSW,237,4.0,8.0,87,-99.99,,,-99.99,0.000000,,2013-03-08 01:42:00,
2013-03-07 17:51:00,42.0,39.0,-100.00,WSW,237,4.0,9.0,88,-99.99,,,-99.99,0.000000,,2013-03-08 01:51:00,
2013-03-07 18:01:00,41.0,38.0,-100.00,SW,231,3.0,7.0,89,-99.99,,,-99.99,0.000000,,2013-03-08 02:01:00,
2013-03-07 18:11:00,41.0,38.0,-100.00,SSW,199,2.0,7.0,89,-99.99,,,-99.99,0.000000,,2013-03-08 02:11:00,
2013-03-07 18:21:00,41.0,38.0,-100.00,SSE,167,1.0,6.0,90,-99.99,,,-99.99,0.000000,,2013-03-08 02:21:00,
2013-03-07 18:31:00,41.0,39.0,-100.00,SE,141,2.0,4.0,91,-99.99,,,-99.99,0.000000,,2013-03-08 02:31:00,
2013-03-07 18:41:00,41.0,39.0,-100.00,ESE,116,2.0,3.0,92,-99.99,,,-99.99,0.000000,,2013-03-08 02:41:00,
2013-03-07 18:52:00,40.0,38.0,-100.00,ESE,109,3.0,5.0,92,-99.99,,,-99.99,0.000000,,2013-03-08 02:52:00,
2013-03-07 19:11:00,41.0,38.0,-100.00,ESE,122,3.0,5.0,89,-99.99,,,-99.99,0.000000,,2013-03-08 03:11:00,
2013-03-07 19:22:00,40.0,36.0,-100.00,SE,133,4.0,7.0,87,-99.99,,,-99.99,0.000000,,2013-03-08 03:22:00,
2013-03-07 19:32:00,40.0,34.0,-100.00,ESE,118,6.0,8.0,79,-99.99,,,-99.99,0.000000,,2013-03-08 03:32:00,
2013-03-07 19:42:00,40.0,32.0,-100.00,ESE,117,5.0,8.0,74,-99.99,,,-99.99,0.000000,,2013-03-08 03:42:00,
2013-03-07 19:52:00,39.0,31.0,-100.00,ESE,118,5.0,7.0,74,-99.99,,,-99.99,0.000000,,2013-03-08 03:52:00,
2013-03-07 20:01:00,39.0,31.0,-100.00,ESE,118,5.0,7.0,74,-99.99,,,-99.99,0.000000,,2013-03-08 04:01:00,
2013-03-07 20:11:00,40.0,32.0,-100.00,ESE,110,7.0,8.0,72,-99.99,,,-99.99,0.000000,,2013-03-08 04:11:00,
2013-03-07 20:21:00,39.0,31.0,-100.00,ESE,117,6.0,8.0,72,-99.99,,,-99.99,0.000000,,2013-03-08 04:21:00,
2013-03-07 20:31:00,39.0,30.0,-100.00,ESE,117,7.0,10.0,71,-99.99,,,-99.99,0.000000,,2013-03-08 04:31:00,
2013-03-07 20:42:00,40.0,31.0,-100.00,ESE,117,8.0,10.0,69,-99.99,,,-99.99,0.000000,,2013-03-08 04:42:00,
2013-03-07 20:51:00,40.0,31.0,-100.00,SE,124,6.0,10.0,71,-99.99,,,-99.99,0.000000,,2013-03-08 04:51:00,
2013-03-07 21:01:00,40.0,32.0,-100.00,SE,126,6.0,8.0,72,-99.99,,,-99.99,0.000000,,2013-03-08 05:01:00,
2013-03-07 21:12:00,40.0,32.0,-100.00,ESE,121,6.0,8.0,73,-99.99,,,-99.99,0.000000,,2013-03-08 05:12:00,
2013-03-07 21:22:00,40.0,32.0,-100.00,ESE,119,7.0,9.0,74,-99.99,,,-99.99,0.000000,,2013-03-08 05:22:00,
2013-03-07 21:32:00,40.0,32.0,-100.00,ESE,119,8.0,11.0,73,-99.99,,,-99.99,0.000000,,2013-03-08 05:32:00,
2013-03-07 21:42:00,40.0,32.0,-100.00,ESE,122,7.0,10.0,73,-99.99,,,-99.99,0.000000,,2013-03-08 05:42:00,
2013-03-07 21:52:00,41.0,33.0,-100.00,SE,126,6.0,9.0,73,-99.99,,,-99.99,0.000000,,2013-03-08 05:52:00,
2013-03-07 22:01:00,41.0,33.0,-100.00,SE,130,6.0,10.0,72,-99.99,,,-99.99,0.000000,,2013-03-08 06:01:00,
2013-03-07 22:11:00,41.0,33.0,-100.00,ESE,121,6.0,9.0,73,-99.99,,,-99.99,0.000000,,2013-03-08 06:11:00,
2013-03-07 22:21:00,41.0,33.0,-100.00,ESE,122,7.0,10.0,72,-99.99,,,-99.99,0.000000,,2013-03-08 06:21:00,
2013-03-07 22:31:00,40.0,32.0,-100.00,ESE,117,6.0,10.0,74,-99.99,,,-99.99,0.000000,,2013-03-08 06:31:00,
2013-03-07 22:42:00,40.0,32.0,-100.00,ESE,117,6.0,10.0,74,-99.99,,,-99.99,0.000000,,2013-03-08 06:42:00,
2013-03-07 22:51:00,41.0,35.0,-100.00,ESE,103,12.0,18.0,78,-99.99,,,-99.99,0.000000,,2013-03-08 06:51:00,
2013-03-07 23:01:00,41.0,35.0,-100.00,ESE,103,12.0,18.0,78,-99.99,,,-99.99,0.000000,,2013-03-08 07:01:00,
2013-03-07 23:11:00,41.0,35.0,-100.00,ESE,108,11.0,15.0,79,-99.99,,,-99.99,0.000000,,2013-03-08 07:11:00,
2013-03-07 23:21:00,42.0,36.0,-100.00,SE,131,7.0,14.0,79,-99.99,,,-99.99,0.000000,,2013-03-08 07:21:00,
2013-03-07 23:31:00,41.0,36.0,-100.00,SE,130,7.0,10.0,81,-99.99,,,-99.99,0.000000,,2013-03-08 07:31:00,
2013-03-07 23:41:00,41.0,36.0,-100.00,SE,130,7.0,10.0,81,-99.99,,,-99.99,0.000000,,2013-03-08 07:41:00,
2013-03-07 23:51:00,41.0,37.0,-100.00,SE,129,7.0,11.0,86,-99.99,,,-99.99,0.000000,,2013-03-08 07:51:00,